Location: Munkebjergskolens Observatorium
(55.3864°N, 10.3987°E)
Time: 04:00:36
(UTC+02:00)

KKS-1 - Pass Details

Date: 03 April 2023
Orbit: 633 x 644 km, 98.2° (Epoch: 31 May)

Event Time Altitude Azimuth Distance (km) Brightness Sun altitude
Rises 00:40:17 0° 13° (NNE) 2,946 ? -28.9°
Reaches altitude 10° 00:42:31 10° 9° (N) 2,033 ? -29.0°
Enters shadow 00:45:58 46° 333° (NNW) 865 ? -29.0°
